Regional Weather Roundup
Issued by NWS

Home | Current Version | Previous Version | Text Only | Print | Product List | Glossary On
Versions: 1 2 3 4 5 6 7 8 9 10 11 12 13 14 15 16 17 18 19 20 21 22 23 24 25 26 27 28 29 30 31 32 33 34 35 36 37 38 39 40 41 42 43 44 45 46 47 48 49 50
000
ASUS44 KLUB 271101
RWRTX
WEST TEXAS WEATHER ROUNDUP
NATIONAL WEATHER SERVICE LUBBOCK TX
600 AM CDT WED MAY 27 2015

NOTE: "FAIR" INDICATES FEW OR NO CLOUDS BELOW 12,000 FEET WITH NO
SIGNIFICANT WEATHER AND/OR OBSTRUCTIONS TO VISIBILITY.

TXZ004-006>008-010-012-014-016-OKZ002-271200-
TEXAS PANHANDLE/OKLAHOMA PANHANDLE

CITY           SKY/WX    TMP DP  RH WIND       PRES   REMARKS
AMARILLO       CLEAR     59  56  89 CALM      30.08R
BORGER         MOCLDY    59  56  89 NE3       30.07R
CANADIAN       MOCLDY    59  58  97 CALM      30.05R
DALHART        PTCLDY    57  52  83 NE5       30.11R
DUMAS          PTCLDY    55  53  95 NE3       30.09R
GUYMON         PTCLDY    62  58  86 E5        30.06S
$$

TXZ026-029-035-045-048-271200-
SOUTHERN PANHANDLE/SOUTH PLAINS/ROLLING PLAINS

CITY           SKY/WX    TMP DP  RH WIND       PRES   REMARKS
CHILDRESS      CLEAR     63  60  90 S9        30.02R
LUBBOCK        CLOUDY    62  59  90 SE6       30.06R
$$

TXZ052-054-060>062-072-078-127-140-154-169-271200-
PERMIAN BASIN/CONCHO VALLEY/BIG COUNTRY/EDWARDS PLATEAU

CITY           SKY/WX    TMP DP  RH WIND       PRES   REMARKS
ABILENE        CLEAR     68  64  87 S10       30.01S
JUNCTION       CLOUDY    74  70  87 E5        30.04R
MIDLAND        CLEAR     67  66  97 SE8       30.02R FOG
ODESSA         CLEAR     69  66  90 S7        30.03R FOG
SAN ANGELO     MOCLDY    72  69  90 E7        30.02S
SWEETWATER     CLOUDY    70  70 100 S12G17    30.06R
WINK           CLEAR     67  65  93 E7        29.98S FOG
$$

TXZ055-058-074-075-080-082-271200-
FAR WEST/SOUTHWEST MOUNTAINS/TRANS PECOS

CITY           SKY/WX    TMP DP  RH WIND       PRES   REMARKS
DRYDEN           N/A     67  62  84 VRB6      29.99R
EL PASO        CLEAR     60  30  32 SE3       30.03R
FORT STOCKTON  CLEAR     65  63  93 SE7       30.01R
GUADALUPE PASS   N/A     66  36  32 NE13      30.14S
MARFA          CLEAR     50  43  76 NW5       30.13S
$$

TXZ014-016-019-021>030-083-271200
TEXAS TECH WEST TEXAS MESONET/TEXAS PANHANDLE/NORTHERN SOUTH PLAINS

CITY           SKY/WX    TMP DP  RH WIND       PRES   REMARKS
ABERNATHY 5ENE   N/A     58  55  91 SE6       30.07R
AMARILLO 7SSE    N/A     56  55  95 SE1       30.09S
AMHERST 1NE      N/A     55  51  85 S5        30.07R
BOOTLEG 11WNW    N/A     53  49  89 SW6       30.12R
CANADIAN 6E      N/A     57  56  97 N3        30.03S
CAPROCK CYN SP   N/A     62  56  79 CALM      30.05R
CHILDRESS 2NNE   N/A     63  59  86 S10       30.01R
CLARENDON 2WSW   N/A     56  53  92 E2        30.05R
DIMMITT 2NE      N/A     55  52  89 SE8       30.08R
FLOYDADA 2NNE    N/A     60  58  96 SE2       30.06R
FRIONA 2NE       N/A     55  51  86 E6        30.10R
GOODLETT 3W      N/A     60  58  92 CALM      30.00S
HART 3N          N/A     57  53  86 SE5       30.07S
HEREFORD 2NW     N/A     56  49  78 N1        30.08R
MCLEAN 1E        N/A     58  56  96 SW2       30.04S
MEMPHIS 1NE      N/A     57  56  96 N1        30.02S
MULESHOE 2SSW    N/A     51  47  89 CALM      30.07R
OLTON 6S         N/A     57  53  87 SE7       30.07R
PALO DURO SP     N/A     58  55  91 SE2       30.08S
PAMPA 2E         N/A     57  56  97 SE1       30.06S
PLAINVIEW 1S     N/A     60  58  92 S2        30.06R
SILVERTON 7ESE   N/A     59  56  90 S9        30.06S
TULIA 2ENE       N/A     57  54  89 S9        30.07R
UMBARGER 3NNE    N/A     58  54  86 S5        30.08S
$$

TXZ033>036-039>041-045>048-271200
TEXAS TECH WEST TEXAS MESONET/SOUTH PLAINS

CITY           SKY/WX    TMP DP  RH WIND       PRES   REMARKS
AIKEN 3WSW       N/A     59  58  95 SE3       30.08R
ANDREWS 2NE      N/A     64  61  91 CALM      30.04R
ANTON 6SSW       N/A     58  56  92 CALM      30.06R
BROWNFIELD 2S    N/A     61  60  97 SW6       30.05R
DENVR CTY 7WNW   N/A     60  58  90 S2        30.06S
GAIL 2ESE        N/A     66  64  93 SE8       30.03R
LAMESA 2SE       N/A     67  66  96 SE7       30.05R
LEVELLAND 4S     N/A     58  55  90 SW5       30.06R
LUBBOCK 3WNW     N/A     64  62  93 SE5       30.06R
MORTON 1ENE      N/A     61  57  88 S9        30.07R
ODONNELL 1N      N/A     67  65  93 SE8       30.05R
PLAINS 3N        N/A     61  58  87 S6        30.07R
RALLS 1SE        N/A     64  61  90 S8        30.07R
REESE CENTER     N/A     60  58  96 S6        30.06R
SEAGRAVES 1SW    N/A     58  57  97 CALM      30.06R
SEMINOLE 2NNE    N/A     59  57  94 N3        30.05R
SLATON 2NE       N/A     62  60  91 SE3       30.06R
SNYDER 3E        N/A     68  66  94 S12       30.03R
SUNDOWN 8SW      N/A     59  57  92 SW7       30.06S
TAHOKA 3NNE      N/A     65  64  96 E5        30.05R
WOLFFORTH 6SSW   N/A     60  60  98 SE7       30.06R
$$

TXZ031-032-036>038-042>044-271200-
TEXAS TECH WEST TEXAS MESONET/ROLLING PLAINS

CITY           SKY/WX    TMP DP  RH WIND       PRES   REMARKS
ASPERMONT 3NE    N/A     64  61  91 S3        30.01R
FLUVANNA 3WNW    N/A     67  63  88 S12       30.04R
GUTHRIE 10WSW    N/A     61  59  95 S2        30.01R
HASKELL 1NW      N/A     65  62  89 S7        29.99S
JAYTON 1SSE      N/A     62  59  91 S1        30.02R
KNOX CITY 3NW    N/A     63  58  86 W1        30.01R
LK A HENRY 1NW   N/A     67  64  89 S5        30.03R
NORTHFIELD 1S    N/A     62  60  94 S6        30.02R
ODELL 4ENE       N/A     63  62  96 SW1       30.02R
PADUCAH 10SW     N/A     63  60  89 SW6       30.02R
POST 1NE         N/A     62  59  89 NW2       30.04R
RRING SPRGS 3N   N/A     60  58  96 SW6       30.04R
SEYMOUR 3NW      N/A     65  59  80 S7        30.00R
SPUR 1W          N/A     60  58  92 W2        30.03R
WEINERT 2NNE     N/A     64  61  90 S6        30.00S
WHITE RVR 6NE    N/A     62  59  90 SE1       30.05R
$$

TXZ052-054-060>062-072-078-127-140-154-169-271200-
TEXAS TECH WEST TEXAS MESONET/PERMIAN BASIN/
CONCHO VALLEY/BIG COUNTRY/EDWARDS PLATEAU

CITY           SKY/WX    TMP DP  RH WIND       PRES   REMARKS
JUNCTION 1SSW    N/A     74  71  90 SE6       30.04R
MERTZON 3NNE     N/A     71  69  95 E1        30.05R
SAN ANGELO 7NW   N/A     71  68  89 E7        30.03S
STRLNG CT 4WSW   N/A     70  68  94 E12       30.04R
ST LAWRNCE 5SW   N/A     69  67  94 SE12      30.03R
SWEETWATR 11SW   N/A     68  67  98 SE16      30.05R
WALL 1E          N/A     71  67  87 SE9       30.03S
$$

TXZ055-058-074-075-080-082-271200-
TEXAS TECH WEST TEXAS MESONET/FAR WEST/SOUTHWEST MOUNTAINS/TRANS PECOS

CITY           SKY/WX    TMP DP  RH WIND       PRES   REMARKS
PRSMN GAP BBNP   N/A     69  58  68 NE9       30.00R
$$



USA.gov is the U.S. government's official web portal to all federal, state and local government web resources and services.